Regional Weather Roundup
Issued by NWS

Home | Current Version | Previous Version | Text Only | Print | Product List | Glossary On
Versions: 1 2 3 4 5 6 7 8 9 10 11 12 13 14 15 16 17 18 19 20 21 22 23 24 25 26 27 28 29 30 31 32 33 34 35 36 37 38 39 40 41 42 43 44 45 46 47 48 49 50
000
ASUS44 KMEG 202010
RWRTN
TENNESSEE HOURLY STATE WEATHER ROUNDUP
NATIONAL WEATHER SERVICE MEMPHIS TN
300 PM CDT FRI OCT 20 2017

TNZ002-004-019-021-049-052-054-088>092-202100-
WEST TENNESSEE

CITY           SKY/WX    TMP DP  RH WIND       PRES   REMARKS
MEMPHIS INTL   CLOUDY    75  52  44 SE9       30.14F
NWS MEMPHIS      N/A     75 N/A N/A MISG        N/A
JACKSON        CLOUDY    76  50  40 SE6       30.15F
DYERSBURG      CLOUDY    75  52  44 SE6       30.15
SOMERVILLE     SUNNY     75  52  43 VRB5      30.14S
COVINGTON      SUNNY     75  48  38 SE7       30.14F
UNION CITY     SUNNY     77  54  44 S10       30.13F
BOLIVAR        SUNNY     75  54  46 SE5       30.14F
PARIS          SUNNY     75  52  43 SE6       30.15F
HUNTINGDON     SUNNY     77  50  38 S9        30.15F
LEXINGTON      SUNNY     75  48  38 SE8       30.16F
SELMER         SUNNY     75  48  38 SE7       30.15F
SAVANNAH       SUNNY     79  45  29 SE7       30.15F
$$

TNZ008-025-027-028-033-062-065-066-202100-
NORTH MIDDLE TENNESSEE

CITY           SKY/WX    TMP DP  RH WIND       PRES   REMARKS
NASHVILLE      PTSUNNY   78  41  26 VRB3      30.19F
PORTLAND       SUNNY     75  48  38 E3        30.19
CLARKSVILLE    SUNNY     76  46  34 S8        30.18F
SMYRNA         SUNNY     79  46  31 E6        30.19F
COOKEVILLE     SUNNY     79  50  36 E3        30.20F
GALLATIN       SUNNY     77  45  31 VRB6G12   30.21F
CROSSVILLE     SUNNY     75  44  33 S3        30.24F
$$

TNZ061-075-076-078-094-096-097-202100-
SOUTH MIDDLE TENNESSEE

CITY           SKY/WX    TMP DP  RH WIND       PRES   REMARKS
FAYETTEVILLE   SUNNY     75  41  29 VRB3      30.19F
TULLAHOMA      SUNNY     77  36  22 CALM      30.21F
WINCHESTER     SUNNY     77  45  31 SE6         N/A
COLUMBIA       SUNNY     77  39  25 E8        30.16F
SHELBYVILLE    SUNNY     77  43  29 CALM      30.19F
$$

TNZ017-018-042-046-047-202100-
NORTHEAST TENNESSEE

CITY           SKY/WX    TMP DP  RH WIND       PRES   REMARKS
TRI CITIES     MOSUNNY   75  46  35 VRB3      30.25F
ELIZABETHTON   SUNNY     75  46  35 W7        30.24F
$$

TNZ012-013-036-069-073-074-202100-
CENTRAL EAST TENNESSEE

CITY           SKY/WX    TMP DP  RH WIND       PRES   REMARKS
KNOXVILLE      PTSUNNY   76  50  40 NE6       30.21F
OAK RIDGE      SUNNY     75  49  39 CALM      30.23F
DOWNTOWN KNOXV SUNNY     77  46  33 SE5       30.22F
GATLINBURG     SUNNY     75  46  35 CALM      30.22F
MORRISTOWN     SUNNY     75  50  41 CALM      30.23F
JACKSBORO      SUNNY     75  45  33 CALM      30.26F
$$

TNZ083-085-099-202100-
SOUTHEAST TENNESSEE

CITY           SKY/WX    TMP DP  RH WIND       PRES   REMARKS
CHATTANOOGA    MOSUNNY   76  48  37 E3        30.21F
DAYTON         CLEAR     75  54  46 CALM      30.20F
$$

SKY/WX REPORTED AS FAIR MEANS FEW OR NO CLOUDS BELOW
12 THOUSAND FEET.




USA.gov is the U.S. government's official web portal to all federal, state and local government web resources and services.